Flag Weather past 2 weeks in Punta Cana, Dominican Republic

Now
82 °F

Passing clouds.


Feels Like: 89 °F
Forecast: N/A
Wind: 8 mph from Southeast

Location: Punta Cana

Current Time: Nov 23, 2014 at 6:30:30 PM

Latest Report: Nov 23, 2014 at 6:00 PM


Visibility: N/A

Pressure: 29.98 "Hg

Humidity: 79%

Dew point: 75 °F

Location of Punta CanaLocation

Historic Weather in Punta Cana — Graph

°F

Punta Cana temperature yesterday

Maximum temperature yesterday: 84 °F (at 1:00 PM)
Minimum temperature yesterday: 75 °F (at 6:00 AM)
Average temperature yesterday: 80 °F

Past Weeks' High & Low Weather Summary

 TemperatureHumidityPressure
High88 °F (Nov 10, 1:00 PM)100% (Nov 9, 4:00 AM)30.09 "Hg (Nov 9, 4:00 AM)
Low68 °F (Nov 14, 4:00 AM)62% (Nov 13, 4:00 PM)29.83 "Hg (Nov 8, 5:00 PM)
Average80 °F82%29.97 "Hg
* Reported Nov 8 5:00 PM — Nov 23 5:00 PM, Punta Cana, Weather by CustomWeather, © 2014

Note: Actual official high and low records may vary slightly from our data, if they occured in-between our weather recording intervals... More about our weather records

Advertising

Punta Cana weather history for previous 24 hours

 ConditionsComfort  
Time TempWeatherWind HumidityBarometerVisibility
5:00 PM
Nov 23
82 °FScattered clouds.9 mph74%29.95 "HgN/A
4:00 PM82 °FPassing clouds.9 mph79%29.95 "HgN/A
3:00 PM84 °FPassing clouds.5 mph74%29.98 "HgN/A
2:00 PM84 °FScattered clouds.7 mph74%30.01 "HgN/A
1:00 PM84 °FPassing clouds.6 mph70%30.01 "HgN/A
12:00 PM84 °FPassing clouds.14 mph70%30.04 "HgN/A
11:00 AM84 °FPassing clouds.12 mph70%29.98 "HgN/A
10:00 AM84 °FPassing clouds.9 mph70%30.07 "HgN/A
9:00 AM82 °FPassing clouds.14 mph79%30.04 "HgN/A
8:00 AM81 °FPassing clouds.9 mph84%30.01 "HgN/A
7:00 AM79 °FPassing clouds.12 mph89%29.98 "HgN/A
6:00 AM79 °FPassing clouds.9 mph84%29.98 "HgN/A
5:00 AM77 °FPassing clouds.12 mph89%29.98 "HgN/A
4:00 AM77 °FScattered showers. Passing clouds.8 mph89%29.98 "Hg5 mi
3:00 AM79 °FPartly cloudy.10 mph84%29.98 "HgN/A
2:00 AM79 °FPartly cloudy.12 mph84%29.98 "HgN/A
1:00 AM79 °FPartly cloudy.7 mph84%30.01 "HgN/A
12:00 AM79 °FPassing clouds.7 mph84%30.01 "HgN/A
11:00 PM
Nov 22
79 °FPassing clouds.6 mph84%30.01 "HgN/A
10:00 PM79 °FPassing clouds.9 mph84%30.01 "HgN/A
9:00 PM79 °FPassing clouds.10 mph84%30.01 "HgN/A
8:00 PM81 °FPassing clouds.9 mph79%29.98 "HgN/A
7:00 PM79 °FPassing clouds.12 mph89%29.98 "HgN/A
6:00 PM81 °FPassing clouds.6 mph79%29.95 "HgN/A
Weather by CustomWeather, © 2014

See weather overviewHow to use our weather pages